SP3OTE-2 Weather Reports


Display with metric or nautical units.
time (UTC)temp
F
wind
direction
speed
MPH
gust
MPH
rain 1hr
in
rain 24hr
in
rain mn
in
humidity
%
barometer
mb
20260504050604 59 0.0 0.0 0.00 0.00 0.00 47 1014.3
20260504045604 58 0.0 0.0 0.00 0.00 0.00 48 1014.3
20260504044604 58 0.0 0.0 0.00 0.00 0.00 48 1014.2
20260504043603 57 0.0 0.0 0.00 0.00 0.00 49 1014.1
20260504042603 57 0.0 0.0 0.00 0.00 0.00 49 1013.9
20260504041603 56 0.0 0.0 0.00 0.00 0.00 49 1013.9
20260504040603 56 0.0 0.0 0.00 0.00 0.00 49 1013.9
20260504035602 55 0.0 0.0 0.00 0.00 0.00 50 1013.8
20260504034602 54 0.0 0.0 0.00 0.00 0.00 50 1013.7
20260504033602 54 0.0 0.0 0.00 0.00 0.00 50 1013.7
20260504032602 54 0.0 0.0 0.00 0.00 0.00 50 1013.7
20260504031602 54 0.0 0.0 0.00 0.00 0.00 50 1013.7
20260504030601 54 0.0 0.0 0.00 0.00 0.00 50 1013.6
20260504025601 54 0.0 0.0 0.00 0.00 0.00 50 1013.7
20260504024601 54 0.0 0.0 0.00 0.00 0.00 50 1013.7
20260504023600 54 0.0 0.0 0.00 0.00 0.00 49 1013.5
20260504022600 55 0.0 0.0 0.00 0.00 0.00 49 1013.5
20260504021600 55 0.0 0.0 0.00 0.00 0.00 49 1013.5
20260504020559 55 0.0 0.0 0.00 0.00 0.00 48 1013.6
20260504015559 55 0.0 0.0 0.00 0.00 0.00 48 1013.6
20260504014559 55 0.0 0.0 0.00 0.00 0.00 48 1013.7
20260504013559 56 0.0 0.0 0.00 0.00 0.00 47 1013.8
20260504012558 56 0.0 0.0 0.00 0.00 0.00 47 1013.7
20260504011558 56 0.0 0.0 0.00 0.00 0.00 47 1013.8
20260504010558 56 0.0 0.0 0.00 0.00 0.00 47 1013.8
20260504005558 57 0.0 0.0 0.00 0.00 0.00 47 1013.8
20260504004557 57 0.0 0.0 0.00 0.00 0.00 46 1013.8
20260504003557 58 0.0 0.0 0.00 0.00 0.00 46 1013.8
20260504002557 58 0.0 0.0 0.00 0.00 0.00 45 1013.7
20260504001557 58 0.0 0.0 0.00 0.00 0.00 45 1013.7
20260504000556 58 0.0 0.0 0.00 0.00 0.00 45 1013.8
20260503235556 59 0.0 0.0 0.00 0.00 0.00 45 1013.9
20260503234556 60 0.0 0.0 0.00 0.00 0.00 44 1014.0
20260503233556 60 0.0 0.0 0.00 0.00 0.00 44 1013.9
20260503232555 60 0.0 0.0 0.00 0.00 0.00 44 1013.9
20260503231555 60 0.0 0.0 0.00 0.00 0.00 44 1014.0
20260503230555 61 0.0 0.0 0.00 0.00 0.00 44 1014.1
20260503225555 61 0.0 0.0 0.00 0.00 0.00 44 1014.1
20260503224554 62 0.0 0.0 0.00 0.00 0.00 44 1014.1
20260503223554 62 0.0 0.0 0.00 0.00 0.00 44 1014.2
20260503222554 62 0.0 0.0 0.00 0.00 0.00 44 1014.2
20260503221554 62 0.0 0.0 0.00 0.00 0.00 44 1014.2
20260503220553 63 0.0 0.0 0.00 0.00 0.00 43 1014.2
20260503215553 63 0.0 0.0 0.00 0.00 0.00 44 1014.3
20260503214553 63 0.0 0.0 0.00 0.00 0.00 43 1014.3
20260503213552 63 0.0 0.0 0.00 0.00 0.00 43 1014.3
20260503212552 64 0.0 0.0 0.00 0.00 0.00 43 1014.4
20260503211552 64 0.0 0.0 0.00 0.00 0.00 43 1014.4
20260503210552 64 0.0 0.0 0.00 0.00 0.00 43 1014.3
20260503205551 65 0.0 0.0 0.00 0.00 0.00 43 1014.4
20260503204551 65 0.0 0.0 0.00 0.00 0.00 43 1014.3
20260503203551 65 0.0 0.0 0.00 0.00 0.00 42 1014.4
20260503202550 66 0.0 0.0 0.00 0.00 0.00 42 1014.4
20260503201550 66 0.0 0.0 0.00 0.00 0.00 41 1014.3
20260503200550 66 0.0 0.0 0.00 0.00 0.00 41 1014.3
20260503195550 67 0.0 0.0 0.00 0.00 0.00 40 1014.3
20260503194550 67 0.0 0.0 0.00 0.00 0.00 40 1014.3
20260503193549 68 0.0 0.0 0.00 0.00 0.00 40 1014.4
20260503192549 68 0.0 0.0 0.00 0.00 0.00 39 1014.2
20260503191549 69 0.0 0.0 0.00 0.00 0.00 39 1014.3
20260503190549 70 0.0 0.0 0.00 0.00 0.00 38 1014.2
20260503185548 70 0.0 0.0 0.00 0.00 0.00 37 1014.0
20260503184548 71 0.0 0.0 0.00 0.00 0.00 37 1014.0
20260503183548 72 0.0 0.0 0.00 0.00 0.00 36 1013.9
20260503182548 73 0.0 0.0 0.00 0.00 0.00 35 1013.7
20260503181547 74 0.0 0.0 0.00 0.00 0.00 34 1013.7
20260503180547 76 0.0 0.0 0.00 0.00 0.00 33 1013.6
20260503175547 77 0.0 0.0 0.00 0.00 0.00 33 1013.5
20260503174547 78 0.0 0.0 0.00 0.00 0.00 32 1013.4
20260503173546 81 0.0 0.0 0.00 0.00 0.00 29 1013.4
20260503172546 87 0.0 0.0 0.00 0.00 0.00 27 1013.4
20260503171546 89 0.0 0.0 0.00 0.00 0.00 26 1013.3
20260503170546 91 0.0 0.0 0.00 0.00 0.00 25 1013.3
20260503150541 94 0.0 0.0 0.00 0.00 0.00 25 1013.6
20260503130538 87 0.0 0.0 0.00 0.00 0.00 27 1015.1
20260503110535 78 0.0 0.0 0.00 0.00 0.00 31 1016.6
20260503081531 69 0.0 0.0 0.00 0.00 0.00 45 1017.9
20260503080531 67 0.0 0.0 0.00 0.00 0.00 47 1017.9
20260503072529 64 0.0 0.0 0.00 0.00 0.00 49 1018.0
20260503071530 63 0.0 0.0 0.00 0.00 0.00 49 1018.0
20260503070529 62 0.0 0.0 0.00 0.00 0.00 51 1018.0
20260503054528 56 0.0 0.0 0.00 0.00 0.00 61 1018.0
20260503053527 56 0.0 0.0 0.00 0.00 0.00 62 1018.0
20260503052526 54 0.0 0.0 0.00 0.00 0.00 67 1018.2
20260503051526 53 0.0 0.0 0.00 0.00 0.00 70 1018.2